Flag for Germany Weather past 2 weeks in Lünen, North Rhine-Westphalia, Germany

46 °F

Rain. Passing clouds.

Feels Like: 41 °F
Forecast: 46 / 54 °F
Wind: 13 mph from West

Location: Dortmund / Wickede

Current Time: Nov 30, 2015 at 2:29:44 AM

Latest Report: Nov 29, 2015 at 10:50 PM

Visibility: 2 mi

Pressure: 29.77 "Hg

Humidity: 87%

Dew point: 43 °F

Location of LünenLocation

Historic Weather in Lünen — Graph


Lünen temperature yesterday

Maximum temperature yesterday: 52 °F (at 9:50 PM)
Minimum temperature yesterday: 45 °F (at 5:20 AM)
Average temperature yesterday: 49 °F

Past Weeks' High & Low Weather Summary

High59 °F (Nov 17, 9:20 PM)94% (Nov 15, 6:50 PM)30.24 "Hg (Nov 15, 6:50 PM)
Low32 °F (Nov 22, 6:20 AM)58% (Nov 18, 5:20 PM)29.39 "Hg (Nov 21, 5:20 AM)
Average44 °F77%29.83 "Hg
* Reported Nov 14 10:20 PM — Nov 29 10:50 PM, Lünen, Weather by CustomWeather, © 2015

Note: Actual official high and low records may vary slightly from our data, if they occured in-between our weather recording intervals... More about our weather records


Lünen weather history for previous 24 hours

Time TempWeatherWind HumidityBarometerVisibility
10:50 PM
Sun, Nov 29
46 °FRain. Passing clouds.13 mph87%29.77 "Hg2 mi
10:20 PM45 °FRain. Passing clouds.22 mph87%29.74 "Hg3 mi
9:50 PM52 °FRain. Passing clouds.36 mph72%29.68 "Hg4 mi
9:20 PM50 °FLight rain. Passing clouds.36 mph82%29.68 "HgN/A
8:50 PM50 °FLight rain. Passing clouds.37 mph76%29.68 "HgN/A
8:20 PM50 °FLight rain. Passing clouds.33 mph76%29.68 "HgN/A
7:50 PM50 °FLight rain. Passing clouds.33 mph76%29.68 "HgN/A
7:20 PM50 °FLight rain. Passing clouds.30 mph76%29.71 "HgN/A
6:50 PM50 °FLight rain. Passing clouds.29 mph76%29.74 "HgN/A
6:20 PM50 °FPassing clouds.30 mph76%29.74 "HgN/A
5:50 PM50 °FLight rain. Passing clouds.26 mph76%29.74 "HgN/A
5:20 PM50 °FLight rain. Passing clouds.29 mph76%29.74 "HgN/A
4:50 PM50 °FLight rain. Passing clouds.26 mph76%29.74 "HgN/A
4:20 PM50 °FPartly sunny.26 mph76%29.74 "HgN/A
3:50 PM50 °FLight rain. Partly sunny.26 mph76%29.71 "HgN/A
3:20 PM50 °FLight rain. Partly sunny.25 mph76%29.71 "HgN/A
2:50 PM48 °FLight rain. Partly sunny.22 mph82%29.74 "Hg6 mi
2:20 PM48 °FLight rain. Partly sunny.20 mph82%29.74 "Hg5 mi
1:50 PM48 °FSprinkles. Partly sunny.21 mph76%29.77 "Hg6 mi
1:20 PM48 °FScattered clouds.23 mph76%29.77 "HgN/A
12:50 PM50 °FScattered clouds.22 mph71%29.77 "HgN/A
12:20 PM48 °FScattered clouds.21 mph76%29.77 "HgN/A
11:50 AM48 °FPartly sunny.22 mph76%29.77 "HgN/A
11:20 AM48 °FScattered clouds.21 mph76%29.77 "HgN/A
10:50 AM48 °FScattered showers. Partly sunny.22 mph76%29.77 "HgN/A
10:20 AM46 °FSprinkles. Partly sunny.18 mph82%29.77 "HgN/A
9:50 AM46 °FSprinkles. Partly sunny.16 mph82%29.77 "HgN/A
9:20 AM46 °FSprinkles. Partly sunny.21 mph76%29.77 "HgN/A
8:50 AM46 °FPassing clouds.22 mph76%29.77 "HgN/A
7:20 AM46 °FPassing clouds.21 mph76%29.77 "HgN/A
5:20 AM45 °FSprinkles. Passing clouds.23 mph81%29.74 "HgN/A
Weather by CustomWeather, © 2015

See weather overviewHow to use our weather pages